Time,TemperatureF,DewpointF,PressureIn,WindDirection,WindDirectionDegrees,WindSpeedMPH,WindSpeedGustMPH,Humidity,HourlyPrecipIn,Conditions,Clouds,dailyrainin,SoftwareType,DateUTC
2013-04-13 00:03:00,59.0,37.0,29.76,SE,129,2.0,13.0,44,-99.99,,,-99.99,,2013-04-13 04:03:00,
2013-04-13 00:12:00,59.0,37.0,29.76,SE,129,2.0,13.0,44,-99.99,,,-99.99,,2013-04-13 04:12:00,
2013-04-13 00:23:00,59.0,37.0,29.77,ESE,110,3.0,14.0,44,-99.99,,,-99.99,,2013-04-13 04:23:00,
2013-04-13 00:33:00,58.0,36.0,29.77,SE,132,8.0,0.0,44,-99.99,,,-99.99,,2013-04-13 04:33:00,
2013-04-13 00:42:00,58.0,36.0,29.77,SE,132,8.0,0.0,44,-99.99,,,-99.99,,2013-04-13 04:42:00,
2013-04-13 00:53:00,58.0,36.0,29.77,NE,53,8.0,13.0,44,-99.99,,,-99.99,,2013-04-13 04:53:00,
2013-04-13 01:03:00,58.0,36.0,29.77,NE,53,8.0,13.0,44,-99.99,,,-99.99,,2013-04-13 05:03:00,
2013-04-13 01:12:00,58.0,36.0,29.77,NE,53,8.0,13.0,44,-99.99,,,-99.99,,2013-04-13 05:12:00,
2013-04-13 01:22:00,56.0,36.0,29.78,SSE,152,2.0,0.0,46,-99.99,,,-99.99,,2013-04-13 05:22:00,
2013-04-13 01:32:00,56.0,35.0,29.78,ESE,105,5.0,0.0,45,-99.99,,,-99.99,,2013-04-13 05:32:00,
2013-04-13 01:43:00,56.0,35.0,29.78,ESE,105,5.0,0.0,45,-99.99,,,-99.99,,2013-04-13 05:43:00,
2013-04-13 01:52:00,55.0,34.0,29.78,SSE,148,6.0,0.0,45,-99.99,,,-99.99,,2013-04-13 05:52:00,
2013-04-13 02:02:00,55.0,35.0,29.78,SE,135,3.0,0.0,46,-99.99,,,-99.99,,2013-04-13 06:02:00,
2013-04-13 02:12:00,55.0,35.0,29.78,SE,135,3.0,0.0,46,-99.99,,,-99.99,,2013-04-13 06:12:00,
2013-04-13 02:24:00,55.0,34.0,29.78,SSE,167,4.0,14.0,45,-99.99,,,-99.99,,2013-04-13 06:24:00,
2013-04-13 02:35:00,55.0,35.0,29.78,ESE,111,1.0,0.0,46,-99.99,,,-99.99,,2013-04-13 06:35:00,
2013-04-13 02:48:00,55.0,35.0,29.78,ESE,111,1.0,0.0,46,-99.99,,,-99.99,,2013-04-13 06:48:00,
2013-04-13 03:07:00,55.0,34.0,29.78,SE,137,7.0,0.0,45,-99.99,,,-99.99,,2013-04-13 07:07:00,
2013-04-13 03:15:00,55.0,34.0,29.78,SE,137,7.0,0.0,45,-99.99,,,-99.99,,2013-04-13 07:15:00,
2013-04-13 03:24:00,55.0,34.0,29.78,SE,137,7.0,0.0,45,-99.99,,,-99.99,,2013-04-13 07:24:00,
2013-04-13 03:35:00,54.0,34.0,29.79,East,84,2.0,0.0,47,-99.99,,,-99.99,,2013-04-13 07:35:00,
2013-04-13 03:46:00,54.0,34.0,29.79,East,84,2.0,0.0,47,-99.99,,,-99.99,,2013-04-13 07:46:00,
2013-04-13 03:57:00,54.0,34.0,29.78,ENE,64,4.0,0.0,47,-99.99,,,-99.99,,2013-04-13 07:57:00,
2013-04-13 04:07:00,54.0,34.0,29.79,ESE,104,2.0,0.0,47,-99.99,,,-99.99,,2013-04-13 08:07:00,
2013-04-13 04:16:00,54.0,34.0,29.79,ESE,104,2.0,0.0,47,-99.99,,,-99.99,,2013-04-13 08:16:00,
2013-04-13 04:25:00,54.0,34.0,29.79,ESE,104,2.0,0.0,47,-99.99,,,-99.99,,2013-04-13 08:25:00,
2013-04-13 04:35:00,54.0,35.0,29.81,SE,141,2.0,0.0,49,-99.99,,,-99.99,,2013-04-13 08:35:00,
2013-04-13 04:45:00,54.0,35.0,29.81,SE,141,2.0,0.0,49,-99.99,,,-99.99,,2013-04-13 08:45:00,
2013-04-13 04:55:00,54.0,36.0,29.81,SW,221,2.0,0.0,50,-99.99,,,-99.99,,2013-04-13 08:55:00,
2013-04-13 05:05:00,53.0,35.0,29.82,NE,43,0.0,0.0,51,-99.99,,,-99.99,,2013-04-13 09:05:00,
2013-04-13 05:15:00,53.0,35.0,29.82,NE,43,0.0,0.0,51,-99.99,,,-99.99,,2013-04-13 09:15:00,
2013-04-13 05:25:00,52.0,35.0,29.82,ESE,121,2.0,0.0,52,-99.99,,,-99.99,,2013-04-13 09:25:00,
2013-04-13 05:38:00,52.0,35.0,29.82,SE,129,0.0,0.0,53,-99.99,,,-99.99,,2013-04-13 09:38:00,
2013-04-13 05:51:00,52.0,35.0,29.82,SE,129,0.0,0.0,53,-99.99,,,-99.99,,2013-04-13 09:51:00,
2013-04-13 06:05:00,52.0,36.0,29.83,East,81,1.0,0.0,55,-99.99,,,-99.99,,2013-04-13 10:05:00,
2013-04-13 06:16:00,52.0,37.0,29.83,East,84,2.0,0.0,56,-99.99,,,-99.99,,2013-04-13 10:16:00,
2013-04-13 06:25:00,52.0,37.0,29.83,East,84,2.0,0.0,56,-99.99,,,-99.99,,2013-04-13 10:25:00,
2013-04-13 06:37:00,52.0,37.0,29.83,East,84,2.0,0.0,56,-99.99,,,-99.99,,2013-04-13 10:37:00,
2013-04-13 06:48:00,52.0,37.0,29.83,East,84,2.0,0.0,56,-99.99,,,-99.99,,2013-04-13 10:48:00,
2013-04-13 06:54:00,51.0,37.0,29.85,ENE,72,0.0,0.0,58,-99.99,,,-99.99,,2013-04-13 10:54:00,
2013-04-13 07:08:00,51.0,37.0,29.86,ENE,64,1.0,0.0,59,-99.99,,,-99.99,,2013-04-13 11:08:00,
2013-04-13 07:14:00,51.0,37.0,29.86,ENE,64,1.0,0.0,59,-99.99,,,-99.99,,2013-04-13 11:14:00,
2013-04-13 07:24:00,50.0,37.0,29.86,ENE,64,1.0,0.0,60,-99.99,,,-99.99,,2013-04-13 11:24:00,
2013-04-13 07:34:00,50.0,37.0,29.88,ENE,72,1.0,0.0,61,-99.99,,,-99.99,,2013-04-13 11:34:00,
2013-04-13 07:45:00,50.0,37.0,29.88,ENE,72,1.0,0.0,61,-99.99,,,-99.99,,2013-04-13 11:45:00,
2013-04-13 07:53:00,51.0,38.0,29.88,ENE,76,0.0,0.0,61,-99.99,,,-99.99,,2013-04-13 11:53:00,
2013-04-13 08:08:00,53.0,39.0,29.89,ENE,63,1.0,0.0,58,-99.99,,,-99.99,,2013-04-13 12:08:00,
2013-04-13 08:15:00,53.0,39.0,29.89,ENE,63,1.0,0.0,58,-99.99,,,-99.99,,2013-04-13 12:15:00,
2013-04-13 08:25:00,53.0,39.0,29.89,ENE,63,1.0,0.0,58,-99.99,,,-99.99,,2013-04-13 12:25:00,
2013-04-13 08:37:00,53.0,38.0,29.90,East,93,4.0,0.0,56,-99.99,,,-99.99,,2013-04-13 12:37:00,
2013-04-13 08:47:00,53.0,38.0,29.90,East,93,4.0,0.0,56,-99.99,,,-99.99,,2013-04-13 12:47:00,
2013-04-13 09:08:00,54.0,37.0,29.90,ESE,121,2.0,0.0,53,-99.99,,,-99.99,,2013-04-13 13:08:00,
2013-04-13 09:15:00,54.0,37.0,29.90,ESE,121,2.0,0.0,53,-99.99,,,-99.99,,2013-04-13 13:15:00,
2013-04-13 09:30:00,54.0,37.0,29.90,ESE,121,2.0,0.0,53,-99.99,,,-99.99,,2013-04-13 13:30:00,
2013-04-13 09:35:00,55.0,36.0,29.91,SSE,155,2.0,0.0,49,-99.99,,,-99.99,,2013-04-13 13:35:00,
2013-04-13 09:48:00,55.0,36.0,29.91,SSE,155,2.0,0.0,49,-99.99,,,-99.99,,2013-04-13 13:48:00,
2013-04-13 09:58:00,55.0,36.0,29.91,SSE,155,2.0,0.0,49,-99.99,,,-99.99,,2013-04-13 13:58:00,
2013-04-13 10:05:00,55.0,36.0,29.91,SSE,155,2.0,0.0,49,-99.99,,,-99.99,,2013-04-13 14:05:00,
2013-04-13 10:15:00,55.0,36.0,29.91,SSE,155,2.0,0.0,49,-99.99,,,-99.99,,2013-04-13 14:15:00,
2013-04-13 10:24:00,57.0,36.0,29.91,SSE,155,3.0,0.0,46,-99.99,,,-99.99,,2013-04-13 14:24:00,
2013-04-13 10:39:00,57.0,36.0,29.91,East,99,1.0,0.0,46,-99.99,,,-99.99,,2013-04-13 14:39:00,
2013-04-13 10:47:00,57.0,36.0,29.91,East,99,1.0,0.0,46,-99.99,,,-99.99,,2013-04-13 14:47:00,
2013-04-13 10:55:00,57.0,36.0,29.91,East,99,1.0,0.0,46,-99.99,,,-99.99,,2013-04-13 14:55:00,
2013-04-13 11:05:00,59.0,38.0,29.91,East,79,1.0,0.0,45,-99.99,,,-99.99,,2013-04-13 15:05:00,
2013-04-13 11:15:00,59.0,38.0,29.91,East,79,1.0,0.0,45,-99.99,,,-99.99,,2013-04-13 15:15:00,
2013-04-13 11:29:00,59.0,38.0,29.91,East,79,1.0,0.0,45,-99.99,,,-99.99,,2013-04-13 15:29:00,
2013-04-13 11:37:00,59.0,38.0,29.91,East,79,1.0,0.0,45,-99.99,,,-99.99,,2013-04-13 15:37:00,
2013-04-13 11:44:00,59.0,38.0,29.91,East,79,1.0,0.0,45,-99.99,,,-99.99,,2013-04-13 15:44:00,
2013-04-13 11:59:00,61.0,39.0,29.91,NE,41,4.0,0.0,44,-99.99,,,-99.99,,2013-04-13 15:59:00,
2013-04-13 12:08:00,61.0,39.0,29.91,NE,41,4.0,0.0,44,-99.99,,,-99.99,,2013-04-13 16:08:00,
2013-04-13 12:16:00,61.0,39.0,29.91,NE,41,4.0,0.0,44,-99.99,,,-99.99,,2013-04-13 16:16:00,
2013-04-13 12:25:00,62.0,40.0,29.91,East,96,2.0,0.0,45,-99.99,,,-99.99,,2013-04-13 16:25:00,
2013-04-13 12:36:00,63.0,38.0,29.91,ESE,106,3.0,0.0,40,-99.99,,,-99.99,,2013-04-13 16:36:00,
2013-04-13 12:47:00,63.0,38.0,29.91,ESE,106,3.0,0.0,40,-99.99,,,-99.99,,2013-04-13 16:47:00,
2013-04-13 12:54:00,63.0,38.0,29.91,ESE,106,3.0,0.0,40,-99.99,,,-99.99,,2013-04-13 16:54:00,
2013-04-13 13:08:00,65.0,41.0,29.90,East,81,3.0,0.0,41,-99.99,,,-99.99,,2013-04-13 17:08:00,
2013-04-13 13:25:00,66.0,37.0,29.89,SE,141,2.0,0.0,34,-99.99,,,-99.99,,2013-04-13 17:25:00,
2013-04-13 13:38:00,66.0,37.0,29.89,SE,141,2.0,0.0,34,-99.99,,,-99.99,,2013-04-13 17:38:00,
2013-04-13 13:44:00,66.0,37.0,29.89,SE,141,2.0,0.0,34,-99.99,,,-99.99,,2013-04-13 17:44:00,
2013-04-13 13:59:00,67.0,38.0,29.89,North,356,1.0,0.0,34,-99.99,,,-99.99,,2013-04-13 17:59:00,
2013-04-13 14:07:00,68.0,38.0,29.88,SSW,205,3.0,0.0,33,-99.99,,,-99.99,,2013-04-13 18:07:00,
2013-04-13 14:15:00,68.0,38.0,29.88,SSW,205,3.0,0.0,33,-99.99,,,-99.99,,2013-04-13 18:15:00,
2013-04-13 14:25:00,68.0,36.0,29.88,SSE,162,3.0,0.0,31,-99.99,,,-99.99,,2013-04-13 18:25:00,
2013-04-13 14:33:00,69.0,38.0,29.87,North,359,8.0,14.0,32,-99.99,,,-99.99,,2013-04-13 18:33:00,
2013-04-13 14:42:00,69.0,38.0,29.87,North,359,8.0,14.0,32,-99.99,,,-99.99,,2013-04-13 18:42:00,
2013-04-13 14:52:00,70.0,38.0,29.86,East,93,2.0,0.0,31,-99.99,,,-99.99,,2013-04-13 18:52:00,
2013-04-13 15:03:00,70.0,38.0,29.85,North,4,3.0,0.0,31,-99.99,,,-99.99,,2013-04-13 19:03:00,
2013-04-13 15:12:00,70.0,38.0,29.85,North,4,3.0,0.0,31,-99.99,,,-99.99,,2013-04-13 19:12:00,
2013-04-13 15:22:00,70.0,38.0,29.85,North,4,3.0,0.0,31,-99.99,,,-99.99,,2013-04-13 19:22:00,
2013-04-13 15:33:00,72.0,32.0,29.84,ESE,121,3.0,0.0,23,-99.99,,,-99.99,,2013-04-13 19:33:00,
2013-04-13 15:42:00,72.0,32.0,29.84,ESE,121,3.0,0.0,23,-99.99,,,-99.99,,2013-04-13 19:42:00,
2013-04-13 15:53:00,72.0,31.0,29.84,ESE,120,4.0,0.0,22,-99.99,,,-99.99,,2013-04-13 19:53:00,
2013-04-13 16:02:00,72.0,31.0,29.83,NW,324,7.0,0.0,22,-99.99,,,-99.99,,2013-04-13 20:02:00,
2013-04-13 16:12:00,72.0,31.0,29.83,NW,324,7.0,0.0,22,-99.99,,,-99.99,,2013-04-13 20:12:00,
2013-04-13 16:22:00,73.0,33.0,29.83,NNE,33,2.0,14.0,23,-99.99,,,-99.99,,2013-04-13 20:22:00,
2013-04-13 16:32:00,73.0,32.0,29.83,ENE,77,8.0,0.0,22,-99.99,,,-99.99,,2013-04-13 20:32:00,
2013-04-13 16:42:00,73.0,32.0,29.83,ENE,77,8.0,0.0,22,-99.99,,,-99.99,,2013-04-13 20:42:00,
2013-04-13 16:52:00,73.0,32.0,29.83,ENE,77,8.0,0.0,22,-99.99,,,-99.99,,2013-04-13 20:52:00,
2013-04-13 17:02:00,73.0,33.0,29.83,NE,41,3.0,15.0,23,-99.99,,,-99.99,,2013-04-13 21:02:00,
2013-04-13 17:12:00,73.0,33.0,29.83,NE,41,3.0,15.0,23,-99.99,,,-99.99,,2013-04-13 21:12:00,
2013-04-13 17:22:00,73.0,33.0,29.83,ENE,66,5.0,0.0,23,-99.99,,,-99.99,,2013-04-13 21:22:00,
2013-04-13 17:33:00,73.0,34.0,29.83,SSE,166,2.0,0.0,24,-99.99,,,-99.99,,2013-04-13 21:33:00,
2013-04-13 17:43:00,73.0,34.0,29.83,SSE,166,2.0,0.0,24,-99.99,,,-99.99,,2013-04-13 21:43:00,
2013-04-13 17:52:00,73.0,33.0,29.84,NW,312,2.0,13.0,23,-99.99,,,-99.99,,2013-04-13 21:52:00,
2013-04-13 18:03:00,73.0,31.0,29.84,NE,44,4.0,14.0,21,-99.99,,,-99.99,,2013-04-13 22:03:00,
2013-04-13 18:13:00,73.0,31.0,29.84,NE,44,4.0,14.0,21,-99.99,,,-99.99,,2013-04-13 22:13:00,
2013-04-13 18:22:00,73.0,31.0,29.84,NE,44,4.0,14.0,21,-99.99,,,-99.99,,2013-04-13 22:22:00,
2013-04-13 18:33:00,72.0,29.0,29.85,ESE,105,4.0,18.0,20,-99.99,,,-99.99,,2013-04-13 22:33:00,
2013-04-13 18:42:00,72.0,29.0,29.85,ESE,105,4.0,18.0,20,-99.99,,,-99.99,,2013-04-13 22:42:00,
2013-04-13 18:53:00,72.0,29.0,29.85,ESE,105,4.0,18.0,20,-99.99,,,-99.99,,2013-04-13 22:53:00,
2013-04-13 19:02:00,70.0,29.0,29.87,East,83,7.0,14.0,22,-99.99,,,-99.99,,2013-04-13 23:02:00,
2013-04-13 19:12:00,70.0,29.0,29.87,East,83,7.0,14.0,22,-99.99,,,-99.99,,2013-04-13 23:12:00,
2013-04-13 19:22:00,70.0,29.0,29.87,SE,127,5.0,0.0,22,-99.99,,,-99.99,,2013-04-13 23:22:00,
2013-04-13 19:33:00,68.0,30.0,29.87,NE,47,4.0,12.0,24,-99.99,,,-99.99,,2013-04-13 23:33:00,
2013-04-13 19:42:00,68.0,30.0,29.87,NE,47,4.0,12.0,24,-99.99,,,-99.99,,2013-04-13 23:42:00,
2013-04-13 19:52:00,68.0,30.0,29.87,ENE,76,2.0,0.0,24,-99.99,,,-99.99,,2013-04-13 23:52:00,
2013-04-13 20:03:00,67.0,29.0,29.88,East,88,5.0,13.0,24,-99.99,,,-99.99,,2013-04-14 00:03:00,
2013-04-13 20:12:00,67.0,29.0,29.88,East,88,5.0,13.0,24,-99.99,,,-99.99,,2013-04-14 00:12:00,
2013-04-13 20:22:00,67.0,29.0,29.88,East,88,5.0,13.0,24,-99.99,,,-99.99,,2013-04-14 00:22:00,
2013-04-13 20:32:00,66.0,29.0,29.89,SSE,165,4.0,0.0,25,-99.99,,,-99.99,,2013-04-14 00:32:00,
2013-04-13 20:42:00,66.0,29.0,29.89,SSE,165,4.0,0.0,25,-99.99,,,-99.99,,2013-04-14 00:42:00,
2013-04-13 20:52:00,66.0,31.0,29.89,East,88,1.0,0.0,27,-99.99,,,-99.99,,2013-04-14 00:52:00,
2013-04-13 21:02:00,66.0,31.0,29.89,East,88,1.0,0.0,27,-99.99,,,-99.99,,2013-04-14 01:02:00,
2013-04-13 21:12:00,66.0,31.0,29.89,East,88,1.0,0.0,27,-99.99,,,-99.99,,2013-04-14 01:12:00,
2013-04-13 21:22:00,64.0,30.0,29.90,ESE,113,1.0,0.0,28,-99.99,,,-99.99,,2013-04-14 01:22:00,
2013-04-13 21:32:00,64.0,30.0,29.91,NE,54,1.0,0.0,28,-99.99,,,-99.99,,2013-04-14 01:32:00,
2013-04-13 21:43:00,64.0,30.0,29.91,NE,54,1.0,0.0,28,-99.99,,,-99.99,,2013-04-14 01:43:00,
2013-04-13 21:53:00,64.0,30.0,29.91,NE,54,1.0,0.0,28,-99.99,,,-99.99,,2013-04-14 01:53:00,
2013-04-13 22:02:00,64.0,31.0,29.92,SE,134,4.0,0.0,29,-99.99,,,-99.99,,2013-04-14 02:02:00,
2013-04-13 22:12:00,64.0,31.0,29.92,SE,134,4.0,0.0,29,-99.99,,,-99.99,,2013-04-14 02:12:00,
2013-04-13 22:22:00,64.0,31.0,29.93,ESE,108,2.0,0.0,29,-99.99,,,-99.99,,2013-04-14 02:22:00,
2013-04-13 22:32:00,63.0,30.0,29.93,SSE,152,2.0,0.0,29,-99.99,,,-99.99,,2013-04-14 02:32:00,
2013-04-13 22:42:00,63.0,30.0,29.93,SSE,152,2.0,0.0,29,-99.99,,,-99.99,,2013-04-14 02:42:00,
2013-04-13 22:52:00,63.0,30.0,29.93,SSE,152,2.0,0.0,29,-99.99,,,-99.99,,2013-04-14 02:52:00,
2013-04-13 23:03:00,63.0,31.0,29.94,SSE,167,1.0,0.0,30,-99.99,,,-99.99,,2013-04-14 03:03:00,
2013-04-13 23:12:00,63.0,31.0,29.94,SSE,167,1.0,0.0,30,-99.99,,,-99.99,,2013-04-14 03:12:00,
2013-04-13 23:22:00,63.0,31.0,29.94,SSE,167,1.0,0.0,30,-99.99,,,-99.99,,2013-04-14 03:22:00,
2013-04-13 23:33:00,61.0,32.0,29.95,ENE,72,1.0,0.0,33,-99.99,,,-99.99,,2013-04-14 03:33:00,
2013-04-13 23:42:00,61.0,32.0,29.95,ENE,72,1.0,0.0,33,-99.99,,,-99.99,,2013-04-14 03:42:00,
2013-04-13 23:53:00,60.0,32.0,29.95,ESE,106,1.0,0.0,35,-99.99,,,-99.99,,2013-04-14 03:53:00,